Weather History for KHYA - October, 2011

Change the Weather History Date:

Friday, October 28, 2011

  Actual Average Record
Temperature  
Mean Temperature 42 °F -  
Max Temperature 48 °F 58 °F 76 °F (1977)
Min Temperature 36 °F 39 °F 24 °F (1936)
Degree Days  
Heating Degree Days 23    
Moisture  
Dew Point 30 °F    
Average Humidity 66    
Maximum Humidity 87    
Minimum Humidity 39    
Precipitation  
Precipitation 0.03 in - - ()
Sea Level Pressure  
Sea Level Pressure 30.08 in    
Wind  
Wind Speed 12 mph (NW)    
Max Wind Speed 21 mph    
Max Gust Speed 29 mph    
Visibility 10 miles    
Events Rain    
Averages and records for this station are not official NWS values.
T = Trace of Precipitation, MM = Missing Value Source: NWS Daily Summary

Daily Weather History Graph

Daily Weather History Graph

Search for Another Location

Airport or City:

Trip Planner

Search our weather history database for the weather conditions in past years. The results will help you decide how hot, cold, wet, or windy it might be!

Date:

Astronomy

Oct. 28, 2011 Rise Set
Actual Time 7:07 AM EDT 5:41 PM EDT
Civil Twilight 6:39 AM EDT 6:09 PM EDT
Nautical Twilight 6:06 AM EDT 6:42 PM EDT
Astronomical Twilight 5:34 AM EDT 7:14 PM EDT
Moon 9:22 AM EDT (10/28) 6:58 PM EDT (10/28)
Length of Visible Light 11h 30m
Length of Day
10h 33m
Waxing Crescent, 5% of the Moon is Illuminated
Oct 28
Waxing Crescent
Nov 2
First Quarter
Nov 10
Full
Nov 18
Last Quarter
Nov 25
New

Hourly Weather History & Observations

Time (EDT) Temp. Windchill Dew Point Humidity Pressure Visibility Wind Dir Wind Speed Gust Speed Precip Events Conditions
12:56 AM 42.1 °F 33.1 °F 37.9 °F 85% 29.83 in 10.0 mi North 20.7 mph 28.8 mph 0.00 in Rain Light Rain
1:56 AM 42.1 °F 34.2 °F 37.9 °F 85% 29.85 in 10.0 mi North 16.1 mph 28.8 mph 0.01 in Rain Light Rain
2:56 AM 41.0 °F 33.1 °F 37.0 °F 86% 29.89 in 9.0 mi NNW 15.0 mph 26.5 mph 0.01 in Rain Light Rain
3:30 AM 41.0 °F 33.5 °F 35.6 °F 81% 29.90 in 10.0 mi North 13.8 mph 25.3 mph 0.01 in   Overcast
3:56 AM 42.1 °F 35.7 °F 34.0 °F 73% 29.91 in 10.0 mi North 11.5 mph 23.0 mph 0.01 in   Overcast
4:56 AM 39.9 °F 33.9 °F 36.0 °F 86% 29.96 in 10.0 mi NW 9.2 mph 19.6 mph N/A   Overcast
5:46 AM 39.2 °F 33.6 °F 35.6 °F 87% 29.99 in 10.0 mi NW 8.1 mph - N/A   Overcast
5:56 AM 39.0 °F 33.4 °F 35.1 °F 86% 30.00 in 10.0 mi NW 8.1 mph - N/A   Overcast
6:56 AM 37.0 °F 31.6 °F 32.0 °F 82% 30.03 in 10.0 mi WNW 6.9 mph - N/A   Overcast
7:56 AM 36.0 °F 28.5 °F 30.9 °F 82% 30.06 in 10.0 mi WNW 10.4 mph - N/A   Scattered Clouds
8:56 AM 37.0 °F 31.6 °F 30.9 °F 79% 30.09 in 10.0 mi NW 6.9 mph - N/A   Mostly Cloudy
9:56 AM 41.0 °F 33.1 °F 32.0 °F 70% 30.10 in 10.0 mi NNW 15.0 mph 21.9 mph N/A   Mostly Cloudy
10:56 AM 45.0 °F 38.5 °F 28.0 °F 52% 30.12 in 10.0 mi NNW 13.8 mph 27.6 mph N/A   Scattered Clouds
11:56 AM 46.0 °F 40.2 °F 26.1 °F 46% 30.13 in 10.0 mi NNW 12.7 mph 24.2 mph N/A   Partly Cloudy
12:56 PM 46.0 °F 40.2 °F 26.1 °F 46% 30.13 in 10.0 mi NNW 12.7 mph 23.0 mph N/A   Clear
1:56 PM 46.0 °F 40.6 °F 26.1 °F 46% 30.14 in 10.0 mi NNW 11.5 mph 21.9 mph N/A   Clear
2:56 PM 46.4 °F 41.1 °F 24.8 °F 43% 30.14 in 10.0 mi North 11.5 mph 18.4 mph N/A   Clear
3:56 PM 48.0 °F - 24.1 °F 39% 30.15 in 10.0 mi NNW 5.8 mph - N/A   Clear
4:56 PM 46.0 °F 43.9 °F 25.0 °F 44% 30.17 in 10.0 mi NNW 4.6 mph - N/A   Clear
5:56 PM 41.0 °F - 28.0 °F 60% 30.18 in 10.0 mi Calm Calm - N/A   Clear
6:56 PM 41.0 °F 36.4 °F 26.1 °F 55% 30.21 in 10.0 mi WNW 6.9 mph - N/A   Clear
7:56 PM 42.1 °F 38.4 °F 27.0 °F 55% 30.22 in 10.0 mi WNW 5.8 mph - N/A   Clear
8:56 PM 41.0 °F 37.1 °F 27.0 °F 57% 30.23 in 10.0 mi NW 5.8 mph - N/A   Clear
9:56 PM 39.9 °F 37.8 °F 28.0 °F 63% 30.24 in 10.0 mi NW 3.5 mph - N/A   Clear
10:56 PM 39.0 °F 36.8 °F 28.9 °F 67% 30.25 in 10.0 mi WNW 3.5 mph - N/A   Clear
11:56 PM 39.0 °F 35.7 °F 28.0 °F 65% 30.25 in 10.0 mi NW 4.6 mph - N/A   Clear